Weather History for KBPK - May, 2012

Change the Weather History Date:

Tuesday, May 1, 2012

  Actual Average (KHRO) Record (KHRO)
Temperature  
Mean Temperature 72 °F 62 °F  
Max Temperature 84 °F 73 °F 93 °F (1928)
Min Temperature 60 °F 52 °F 26 °F (1903)
Degree Days  
Heating Degree Days 0 4  
Month to date heating degree days 4  
Since 1 July heating degree days 3925  
Cooling Degree Days 7 2  
Month to date cooling degree days 2  
Year to date cooling degree days 39  
Growing Degree Days 22 (Base 50)    
Moisture  
Dew Point 63 °F    
Average Humidity 78    
Maximum Humidity 100    
Minimum Humidity 49    
Precipitation  
Precipitation 0.30 in 0.17 in 2.04 in (2011)
Month to date precipitation 0.17  
Year to date precipitation 13.48  
Snow  
Snow 0.00 in 0.00 in - ()
Month to date snowfall 0.0  
Since 1 July snowfall 11.5  
Snow Depth -    
Sea Level Pressure  
Sea Level Pressure 29.90 in    
Wind  
Wind Speed 7 mph (South)    
Max Wind Speed 13 mph    
Max Gust Speed 24 mph    
Visibility 8 miles    
Events Rain , Thunderstorm    
T = Trace of Precipitation, MM = Missing Value Source: NWS Daily Summary

Daily Weather History Graph

Daily Weather History Graph

Search for Another Location

Airport or City:

Trip Planner

Search our weather history database for the weather conditions in past years. The results will help you decide how hot, cold, wet, or windy it might be!

Date:

Astronomy

May. 01, 2012 Rise Set
Actual Time 6:16 AM CDT 7:58 PM CDT
Civil Twilight 5:48 AM CDT 8:25 PM CDT
Nautical Twilight 5:15 AM CDT 8:59 PM CDT
Astronomical Twilight 4:39 AM CDT 9:34 PM CDT
Moon 3:10 PM CDT (5/1) 3:04 AM CDT (5/1)
Length of Visible Light 14h 37m
Length of Day
13h 42m
Waxing Gibbous, 74% of the Moon is Illuminated
May 1
Waxing Gibbous
May 5
Full
May 12
Last Quarter
May 20
New
May 28
First Quarter

Hourly Weather History & Observations

Time (CDT) Temp. Heat Index Dew Point Humidity Pressure Visibility Wind Dir Wind Speed Gust Speed Precip Events Conditions
12:53 AM 66.0 °F - 64.0 °F 93% 29.95 in 9.0 mi SSE 6.9 mph - N/A   Partly Cloudy
1:53 AM 66.0 °F - 64.0 °F 93% 29.94 in 8.0 mi SSE 3.5 mph - N/A   Partly Cloudy
2:28 AM 66.2 °F - 64.4 °F 94% 29.94 in 8.0 mi SSE 4.6 mph - N/A   Overcast
2:53 AM 66.0 °F - 64.9 °F 96% 29.91 in 8.0 mi SSE 6.9 mph - N/A   Mostly Cloudy
3:01 AM 66.2 °F - 64.4 °F 94% 29.93 in 7.0 mi SSE 6.9 mph - N/A   Scattered Clouds
3:53 AM 66.0 °F - 64.9 °F 96% 29.92 in 7.0 mi SSE 3.5 mph - N/A   Overcast
4:53 AM 66.0 °F - 64.9 °F 96% 29.90 in 7.0 mi SSE 8.1 mph - N/A   Mostly Cloudy
5:28 AM 66.2 °F - 57.2 °F 73% 29.96 in 10.0 mi NW 10.4 mph 23.0 mph N/A Thunderstorm Overcast
5:53 AM 62.1 °F - 60.1 °F 93% 29.96 in 5.0 mi West 4.6 mph - 0.05 in Rain , Thunderstorm Rain
6:10 AM 60.8 °F - 60.8 °F 100% 29.99 in 1.8 mi WSW 3.5 mph - 0.15 in Rain , Thunderstorm Heavy Rain
6:22 AM 60.8 °F - 60.8 °F 100% 29.98 in 3.0 mi WSW 5.8 mph - 0.22 in Rain , Thunderstorm Light Thunderstorms and Rain
6:53 AM 60.1 °F - 60.1 °F 100% 29.95 in 10.0 mi SSE 5.8 mph - 0.24 in   Overcast
7:53 AM 61.0 °F - 61.0 °F 100% 29.93 in 8.0 mi SE 8.1 mph - 0.01 in   Scattered Clouds
8:53 AM 64.0 °F - 61.0 °F 90% 29.90 in 9.0 mi SSE 6.9 mph - N/A   Clear
9:53 AM 71.1 °F - 66.0 °F 84% 29.91 in 9.0 mi South 10.4 mph 17.3 mph N/A   Clear
10:53 AM 73.9 °F - 66.0 °F 76% 29.89 in 9.0 mi SSW 12.7 mph 17.3 mph N/A   Partly Cloudy
11:53 AM 78.1 °F - 64.9 °F 64% 29.88 in 9.0 mi SSW 10.4 mph 19.6 mph N/A   Partly Cloudy
12:53 PM 81.0 °F 82.2 °F 63.0 °F 54% 29.88 in 10.0 mi SSW 10.4 mph 21.9 mph N/A   Clear
1:53 PM 82.0 °F 83.1 °F 63.0 °F 52% 29.87 in 10.0 mi SSW 11.5 mph 20.7 mph N/A   Clear
2:53 PM 84.0 °F 84.9 °F 63.0 °F 49% 29.85 in 10.0 mi SW 11.5 mph 19.6 mph N/A   Clear
3:53 PM 84.0 °F 84.9 °F 63.0 °F 49% 29.84 in 10.0 mi South 12.7 mph 24.2 mph N/A   Clear
4:53 PM 84.0 °F 84.9 °F 63.0 °F 49% 29.83 in 9.0 mi South 10.4 mph 19.6 mph N/A   Clear
5:53 PM 82.0 °F 83.1 °F 63.0 °F 52% 29.82 in 9.0 mi SSW 5.8 mph 17.3 mph N/A   Clear
6:53 PM 80.1 °F 81.7 °F 64.0 °F 58% 29.82 in 10.0 mi South 9.2 mph 16.1 mph N/A   Partly Cloudy
7:53 PM 77.0 °F - 64.0 °F 64% 29.83 in 10.0 mi South 6.9 mph - N/A   Clear
8:53 PM 73.9 °F - 64.0 °F 71% 29.84 in 10.0 mi South 3.5 mph - N/A   Clear
9:53 PM 73.0 °F - 64.0 °F 73% 29.86 in 10.0 mi SSE 4.6 mph - N/A   Clear
10:53 PM 72.0 °F - 63.0 °F 73% 29.86 in 10.0 mi SE 3.5 mph - N/A   Clear
11:53 PM 71.1 °F - 63.0 °F 75% 29.86 in 10.0 mi SSE 4.6 mph - N/A   Clear